Location: Litvinovka
(48.6667°N, 34.3500°E)
Time: 19:12:02
(UTC+00:00)

Cosmos 2285 Rocket - Pass Details

Date: 18 September 2020
Orbit: 970 x 1000 km, 74.0° (Epoch: 22 October)

Event Time Altitude Azimuth Distance (km) Brightness Sun altitude
Rises 17:47:35 0° 185° (S) 3,651 6.8 -19.8°
Reaches altitude 10° 17:50:09 10° 181° (S) 2,710 6.1 -20.1°
Maximum altitude 17:56:14 54° 106° (ESE) 1,171 4.0 -21.0°
Drops below altitude 10° 18:02:23 10° 30° (NNE) 2,744 6.3 -21.9°
Sets 18:05:00 0° 27° (NNE) 3,701 7.1 -22.3°
